GW1213 Weather Reports


time (UTC)temp
C
wind
direction
speed
KPH
gust
KPH
rain 1hr
cm
rain 24hr
cm
rain mn
cm
humidity
%
barometer
mb
20260901141035 29 0 0.0 0.0 0.00 0.00 0.00 76 1016.4
20260901140535 29 0 0.0 0.0 0.00 0.00 0.00 77 1016.4
20260901140058 28 0 0.0 0.0 0.00 0.00 0.00 78 1016.4
20260901135535 28 0 0.0 3.2 0.00 0.00 0.00 78 1016.5
20260901135035 28 0 0.0 4.8 0.00 0.00 0.00 81 1016.6
20260901134556 27 0 0.0 4.8 0.00 0.00 0.00 81 1016.6
20260901134035 27 0 0.0 0.0 0.00 0.00 0.00 85 1016.6
20260901133543 27 0 0.0 0.0 0.00 0.00 0.00 86 1016.8
20260901133106 26 0 0.0 0.0 0.00 0.00 0.00 86 1016.8
20260901132537 26 0 0.0 0.0 0.00 0.00 0.00 86 1016.9
20260901132036 26 0 0.0 0.0 0.00 0.00 0.00 88 1017.0
20260901131558 26 0 0.0 0.0 0.00 0.00 0.00 88 1017.0
20260901131038 26 0 0.0 0.0 0.00 0.00 0.00 90 1017.0
20260901130535 26 0 0.0 0.0 0.00 0.00 0.00 90 1016.9
20260901125535 25 0 0.0 0.0 0.00 0.00 0.00 90 1017.0
20260901125038 25 0 0.0 0.0 0.00 0.00 0.00 90 1016.9
20260901124605 25 0 0.0 0.0 0.00 0.00 0.00 90 1017.0
20260901124035 25 0 0.0 0.0 0.00 0.00 0.00 91 1017.1
20260901123536 25 0 0.0 0.0 0.00 0.00 0.00 91 1017.0
20260901123101 25 0 0.0 0.0 0.00 0.00 0.00 92 1016.9
20260901122536 25 0 0.0 0.0 0.00 0.00 0.00 93 1016.8
20260901122037 25 0 0.0 0.0 0.00 0.00 0.00 94 1016.8
20260901121606 24 0 0.0 0.0 0.00 0.00 0.00 94 1016.9
20260901121037 24 0 0.0 0.0 0.00 0.00 0.00 93 1016.9
20260901120539 24 0 0.0 0.0 0.00 0.00 0.00 93 1016.8
20260901120110 24 0 0.0 0.0 0.00 0.00 0.00 94 1016.7
20260901115535 23 0 0.0 0.0 0.00 0.00 0.00 95 1016.7
20260901115036 23 0 0.0 0.0 0.00 0.00 0.00 95 1016.7
20260901114603 23 0 0.0 0.0 0.00 0.00 0.00 96 1016.7
20260901114035 23 0 0.0 0.0 0.00 0.00 0.00 97 1016.7
20260901113535 23 0 0.0 0.0 0.00 0.00 0.00 97 1016.7
20260901113052 23 0 0.0 0.0 0.00 0.00 0.00 97 1016.6
20260901112539 22 0 0.0 0.0 0.00 0.00 0.00 97 1016.6
20260901112036 22 0 0.0 0.0 0.00 0.00 0.00 97 1016.6
20260901111607 22 0 0.0 0.0 0.00 0.00 0.00 97 1016.5
20260901111036 22 0 0.0 0.0 0.00 0.00 0.00 97 1016.5
20260901110535 22 0 0.0 0.0 0.00 0.00 0.00 97 1016.5
20260901110058 22 0 0.0 0.0 0.00 0.00 0.00 97 1016.4
20260901105536 22 0 0.0 0.0 0.00 0.00 0.00 97 1016.4
20260901105036 22 0 0.0 0.0 0.00 0.00 0.00 96 1016.3
20260901104602 22 0 0.0 0.0 0.00 0.00 0.00 96 1016.4
20260901104038 22 0 0.0 0.0 0.00 0.00 0.00 96 1016.3
20260901103536 22 0 0.0 0.0 0.00 0.00 0.00 96 1016.4
20260901103059 22 0 0.0 0.0 0.00 0.00 0.00 96 1016.4
20260901102535 22 0 0.0 0.0 0.00 0.00 0.00 96 1016.4
20260901102039 22 0 0.0 0.0 0.00 0.00 0.00 96 1016.3
20260901101609 22 0 0.0 0.0 0.00 0.00 0.00 96 1016.4
20260901101036 22 0 0.0 0.0 0.00 0.00 0.00 96 1016.2
20260901100538 22 0 0.0 0.0 0.00 0.00 0.00 96 1016.2
20260901100108 22 0 0.0 0.0 0.00 0.00 0.00 96 1016.2
20260901095535 22 0 0.0 0.0 0.00 0.00 0.00 96 1016.2
20260901095035 22 0 0.0 0.0 0.00 0.00 0.00 96 1016.3
20260901094558 22 0 0.0 0.0 0.00 0.00 0.00 96 1016.2
20260901094035 22 0 0.0 0.0 0.00 0.00 0.00 96 1016.2
20260901093539 22 0 0.0 0.0 0.00 0.00 0.00 96 1016.2
20260901093102 22 0 0.0 0.0 0.00 0.00 0.00 96 1016.2
20260901092535 22 0 0.0 0.0 0.00 0.00 0.00 96 1016.3
20260901092036 22 0 0.0 0.0 0.00 0.00 0.00 96 1016.3
20260901091606 22 0 0.0 0.0 0.00 0.00 0.00 96 1016.2
20260901091035 22 0 0.0 0.0 0.00 0.00 0.00 96 1016.2
20260901090535 22 0 0.0 0.0 0.00 0.00 0.00 96 1016.3
20260901085535 22 0 0.0 0.0 0.00 0.00 0.00 96 1016.2
20260901085040 22 0 0.0 0.0 0.00 0.00 0.00 96 1016.2
20260901084622 22 0 0.0 0.0 0.00 0.00 0.00 96 1016.2
20260901084037 22 0 0.0 0.0 0.00 0.00 0.00 96 1016.2
20260901083541 23 0 0.0 0.0 0.00 0.00 0.00 96 1016.2
20260901083100 23 0 0.0 0.0 0.00 0.00 0.00 96 1016.3
20260901082537 23 0 0.0 0.0 0.00 0.00 0.00 96 1016.2
20260901082038 23 0 0.0 0.0 0.00 0.00 0.00 96 1016.2
20260901081600 23 0 0.0 0.0 0.00 0.00 0.00 96 1016.2
20260901081037 23 0 0.0 0.0 0.00 0.00 0.00 96 1016.2
20260901080536 23 0 0.0 0.0 0.00 0.00 0.00 96 1016.3
20260901080113 23 0 0.0 0.0 0.00 0.00 0.00 96 1016.3
20260901075536 23 0 0.0 0.0 0.00 0.00 0.00 96 1016.3
20260901075036 23 0 0.0 0.0 0.00 0.00 0.00 96 1016.4
20260901074621 23 0 0.0 0.0 0.00 0.00 0.00 96 1016.5
20260901074041 23 0 0.0 0.0 0.00 0.00 0.00 96 1016.6
20260901073536 23 0 0.0 0.0 0.00 0.00 0.00 95 1016.6
20260901073100 23 0 0.0 0.0 0.00 0.00 0.00 95 1016.7
20260901072538 23 0 0.0 0.0 0.00 0.00 0.00 95 1016.6
20260901072041 23 0 0.0 0.0 0.00 0.00 0.00 95 1016.5
20260901071607 23 0 0.0 0.0 0.00 0.00 0.00 95 1016.5
20260901071037 23 0 0.0 0.0 0.00 0.00 0.00 95 1016.5
20260901070538 23 0 0.0 0.0 0.00 0.00 0.00 95 1016.6
20260901065535 23 0 0.0 0.0 0.00 0.00 0.00 95 1016.7
20260901065037 23 0 0.0 0.0 0.00 0.00 0.00 95 1016.7
20260901064603 23 0 0.0 0.0 0.00 0.00 0.00 95 1016.7
20260901064035 23 0 0.0 0.0 0.00 0.00 0.00 95 1016.7
20260901063535 23 0 0.0 0.0 0.00 0.00 0.00 95 1016.8
20260901063105 23 0 0.0 0.0 0.00 0.00 0.00 95 1016.8
20260901062536 23 0 0.0 0.0 0.00 0.00 0.00 95 1016.8
20260901062038 23 0 0.0 0.0 0.00 0.00 0.00 95 1016.9
20260901061559 23 0 0.0 0.0 0.00 0.00 0.00 95 1017.1
20260901061036 23 0 0.0 0.0 0.00 0.00 0.00 95 1017.1
20260901060536 23 0 0.0 0.0 0.00 0.00 0.00 95 1017.1
20260901060101 23 0 0.0 0.0 0.00 0.00 0.00 95 1017.1
20260901055535 23 0 0.0 0.0 0.00 0.00 0.00 95 1017.2
20260901055036 23 0 0.0 0.0 0.00 0.00 0.00 95 1017.2
20260901054557 23 0 0.0 0.0 0.00 0.00 0.00 95 1017.3
20260901054036 23 0 0.0 0.0 0.00 0.00 0.00 95 1017.3
20260901053538 23 0 0.0 0.0 0.00 0.00 0.00 95 1017.3
20260901053107 23 0 0.0 0.0 0.00 0.00 0.00 95 1017.3
20260901052537 23 0 0.0 0.0 0.00 0.00 0.00 95 1017.3
20260901052037 23 0 0.0 0.0 0.00 0.00 0.00 95 1017.4
20260901051606 23 0 0.0 0.0 0.00 0.00 0.00 95 1017.4
20260901051038 23 0 0.0 0.0 0.00 0.00 0.00 95 1017.5
20260901050542 23 0 0.0 0.0 0.00 0.00 0.00 94 1017.5
20260901050100 23 0 0.0 0.0 0.00 0.00 0.00 94 1017.5
20260901045536 23 0 0.0 0.0 0.00 0.00 0.00 94 1017.6
20260901045037 23 0 0.0 0.0 0.00 0.00 0.00 94 1017.7
20260901044607 23 0 0.0 0.0 0.00 0.00 0.00 94 1017.7
20260901044037 23 0 0.0 0.0 0.00 0.00 0.00 94 1017.7
20260901043536 23 0 0.0 0.0 0.00 0.00 0.00 94 1017.8
20260901043109 23 0 0.0 0.0 0.00 0.00 0.00 94 1017.7
20260901042538 23 0 0.0 0.0 0.00 0.00 0.00 94 1017.7
20260901042037 23 0 0.0 0.0 0.00 0.00 0.00 94 1017.7
20260901041619 23 0 0.0 0.0 0.00 0.00 0.00 94 1017.8
20260901041040 23 0 0.0 0.0 0.00 0.00 0.00 93 1017.7
20260901040538 23 0 0.0 0.0 0.00 0.00 0.00 93 1017.7
20260901040136 23 0 0.0 0.0 0.00 0.00 0.00 93 1017.7
20260901035538 24 0 0.0 0.0 0.00 0.00 0.00 93 1017.7
20260901035040 24 0 0.0 0.0 0.00 0.00 0.00 93 1017.8
20260901034552 24 0 0.0 0.0 0.00 0.00 0.00 93 1017.7
20260901034038 24 0 0.0 0.0 0.00 0.00 0.00 93 1017.7
20260901033538 24 0 0.0 0.0 0.00 0.00 0.00 93 1017.7
20260901033101 24 0 0.0 0.0 0.00 0.00 0.00 93 1017.7
20260901032536 24 0 0.0 0.0 0.00 0.00 0.00 92 1017.6
20260901032040 24 0 0.0 0.0 0.00 0.00 0.00 92 1017.6
20260901031602 24 0 0.0 0.0 0.00 0.00 0.00 92 1017.5
20260901031038 24 0 0.0 0.0 0.00 0.00 0.00 92 1017.5
20260901030537 25 0 0.0 0.0 0.00 0.00 0.00 92 1017.6
20260901030110 25 0 0.0 0.0 0.00 0.00 0.00 91 1017.5
20260901025538 25 0 0.0 0.0 0.00 0.00 0.00 91 1017.6
20260901025037 25 0 0.0 0.0 0.00 0.00 0.00 91 1017.6
20260901024607 25 0 0.0 0.0 0.00 0.00 0.00 91 1017.5
20260901024039 25 0 0.0 0.0 0.00 0.00 0.00 91 1017.5
20260901023536 25 0 0.0 0.0 0.00 0.00 0.00 90 1017.4
20260901023105 25 0 0.0 0.0 0.00 0.00 0.00 90 1017.5
20260901022535 25 0 0.0 0.0 0.00 0.00 0.00 90 1017.5
20260901022038 25 0 0.0 0.0 0.00 0.00 0.00 90 1017.5
20260901021600 25 0 0.0 0.0 0.00 0.00 0.00 89 1017.5
20260901021038 25 0 0.0 0.0 0.00 0.00 0.00 88 1017.6
20260901020536 25 0 0.0 0.0 0.00 0.00 0.00 88 1017.5
20260901020057 26 0 0.0 0.0 0.00 0.00 0.00 87 1017.5
20260901015535 26 0 0.0 0.0 0.00 0.00 0.00 88 1017.5
20260901015036 26 0 0.0 0.0 0.00 0.00 0.00 88 1017.6
20260901014606 26 0 0.0 0.0 0.00 0.00 0.00 88 1017.5
20260901014036 26 0 0.0 0.0 0.00 0.00 0.00 87 1017.6
20260901013536 26 0 0.0 0.0 0.00 0.00 0.00 87 1017.4
20260901013102 26 0 0.0 0.0 0.00 0.00 0.00 86 1017.5
20260901012536 26 0 0.0 0.0 0.00 0.00 0.00 86 1017.2
20260901012035 26 0 0.0 0.0 0.00 0.00 0.00 86 1017.3
20260901011558 26 0 0.0 0.0 0.00 0.00 0.00 86 1017.2
20260901011037 26 0 0.0 0.0 0.00 0.00 0.00 85 1017.2
20260901010535 26 0 0.0 0.0 0.00 0.00 0.00 85 1017.2
20260901010116 26 0 0.0 0.0 0.00 0.00 0.00 85 1017.3
20260901005535 26 0 0.0 0.0 0.00 0.00 0.00 86 1017.2
20260901005038 26 0 0.0 0.0 0.00 0.00 0.00 84 1017.1
20260901004603 26 0 0.0 0.0 0.00 0.00 0.00 84 1017.1
20260901004037 26 0 0.0 0.0 0.00 0.00 0.00 85 1017.1
20260901003539 26 0 0.0 0.0 0.00 0.00 0.00 84 1017.1
20260901003059 26 0 0.0 0.0 0.00 0.00 0.00 84 1017.0
20260901002538 27 0 0.0 0.0 0.00 0.00 0.00 84 1017.0
20260901002038 27 0 0.0 0.0 0.00 0.00 0.00 85 1017.1
20260901001559 27 0 0.0 0.0 0.00 0.00 0.00 84 1017.0
20260901001041 27 0 0.0 0.0 0.00 0.00 0.00 83 1017.0
20260901000537 27 0 0.0 0.0 0.00 0.00 0.00 82 1017.0
20260901000058 27 0 0.0 0.0 0.00 0.00 0.00 84 1017.0
20260831235537 27 0 0.0 0.0 0.00 0.00 0.00 83 1016.8
20260831235038 27 0 0.0 0.0 0.00 0.00 0.00 83 1017.0
20260831234604 27 0 0.0 0.0 0.00 0.00 0.00 84 1016.9
20260831234038 27 0 0.0 0.0 0.00 0.00 0.00 83 1017.0
20260831233539 27 0 0.0 0.0 0.00 0.00 0.00 82 1017.1
20260831233116 27 0 0.0 0.0 0.00 0.00 0.00 81 1017.1
20260831232535 28 0 0.0 0.0 0.00 0.00 0.00 81 1017.1
20260831232037 28 0 0.0 0.0 0.00 0.00 0.00 82 1017.2
20260831231559 28 0 0.0 0.0 0.00 0.00 0.00 82 1017.2
20260831231040 28 0 0.0 0.0 0.00 0.00 0.00 80 1017.2
20260831230537 28 0 0.0 0.0 0.00 0.00 0.00 79 1017.3
20260831230114 28 0 0.0 0.0 0.00 0.00 0.00 80 1017.4
20260831225535 28 0 0.0 0.0 0.00 0.00 0.00 79 1017.3
20260831225040 28 0 0.0 0.0 0.00 0.00 0.00 77 1017.3
20260831224602 28 0 0.0 0.0 0.00 0.00 0.00 78 1017.4
20260831224040 28 0 0.0 0.0 0.00 0.00 0.00 77 1017.4
20260831223540 28 0 0.0 0.0 0.00 0.00 0.00 79 1017.4
20260831223109 28 0 0.0 0.0 0.00 0.00 0.00 81 1017.4
20260831222536 28 0 0.0 0.0 0.00 0.00 0.00 80 1017.3
20260831222038 29 0 0.0 0.0 0.00 0.00 0.00 79 1017.4
20260831221601 29 0 0.0 0.0 0.00 0.00 0.00 77 1017.4
20260831221037 29 0 0.0 0.0 0.00 0.00 0.00 74 1017.4
20260831220536 29 0 0.0 0.0 0.00 0.00 0.00 75 1017.5
20260831220053 29 0 0.0 0.0 0.00 0.00 0.00 75 1017.6
20260831215538 30 0 0.0 0.0 0.00 0.00 0.00 74 1017.6
20260831215036 30 0 0.0 0.0 0.00 0.00 0.00 73 1017.4
20260831214610 30 0 0.0 0.0 0.00 0.00 0.00 71 1017.3
20260831214037 30 0 0.0 0.0 0.00 0.00 0.00 71 1017.3
20260831213534 30 0 0.0 0.0 0.00 0.00 0.00 72 1017.2
20260831213059 30 0 0.0 0.0 0.00 0.00 0.00 71 1017.3
20260831212538 30 0 0.0 0.0 0.00 0.00 0.00 71 1017.3
20260831212036 30 0 0.0 0.0 0.00 0.00 0.00 71 1017.2
20260831211557 30 0 0.0 0.0 0.00 0.00 0.00 70 1017.2
20260831211037 30 0 0.0 1.6 0.00 0.00 0.00 69 1017.2
20260831210537 30 0 0.0 1.6 0.00 0.00 0.00 70 1017.2
20260831210103 31 0 0.0 3.2 0.00 0.00 0.00 68 1017.2
20260831205536 31 0 0.0 3.2 0.00 0.00 0.00 69 1017.2
20260831205036 31 0 0.0 1.6 0.00 0.00 0.00 69 1017.2
20260831204608 31 0 0.0 0.0 0.00 0.00 0.00 69 1017.2
20260831204039 31 0 0.0 0.0 0.00 0.00 0.00 69 1017.2
20260831203537 31 0 0.0 0.0 0.00 0.00 0.00 69 1017.1
20260831203112 31 0 0.0 0.0 0.00 0.00 0.00 70 1017.2
20260831202534 31 0 0.0 1.6 0.00 0.00 0.00 68 1017.2
20260831202037 30 0 0.0 4.8 0.00 0.00 0.00 68 1017.3
20260831201554 30 0 0.0 4.8 0.00 0.00 0.00 69 1017.3
20260831201037 30 62 0.0 4.8 0.00 0.00 0.00 69 1017.3
20260831200534 30 0 0.0 6.4 0.00 0.00 0.00 70 1017.3
20260831200110 30 85 1.6 6.4 0.00 0.00 0.00 68 1017.3
20260831195535 30 39 1.6 6.4 0.00 0.00 0.00 71 1017.3
20260831195038 30 32 1.6 6.4 0.00 0.00 0.00 72 1017.4
20260831194637 30 28 1.6 4.8 0.00 0.00 0.00 71 1017.3
20260831194037 30 41 0.0 4.8 0.00 0.00 0.00 71 1017.4
20260831193538 30 0 0.0 12.9 0.00 0.00 0.00 70 1017.4
20260831193100 30 59 3.2 12.9 0.00 0.00 0.00 70 1017.5
20260831192538 30 0 0.0 0.0 0.00 0.00 0.00 71 1017.5
20260831192036 30 0 0.0 0.0 0.00 0.00 0.00 70 1017.6
20260831191602 30 0 0.0 0.0 0.00 0.00 0.00 71 1017.6
20260831191040 30 0 0.0 0.0 0.00 0.00 0.00 71 1017.7
20260831190537 30 0 0.0 3.2 0.00 0.00 0.00 72 1017.7
20260831190109 30 0 0.0 4.8 0.00 0.00 0.00 69 1017.7
20260831185535 30 360 1.6 4.8 0.00 0.00 0.00 71 1017.7
20260831185035 30 0 0.0 8.0 0.00 0.00 0.00 70 1017.7
20260831184601 30 38 3.2 11.3 0.00 0.00 0.00 69 1017.6
20260831184035 30 76 4.8 11.3 0.00 0.00 0.00 69 1017.6
20260831183536 30 0 0.0 8.0 0.00 0.00 0.00 67 1017.6
20260831183106 30 48 3.2 8.0 0.00 0.00 0.00 68 1017.6
20260831182536 31 0 1.6 8.0 0.00 0.00 0.00 66 1017.6
20260831182036 31 71 4.8 8.0 0.00 0.00 0.00 63 1017.7
20260831181607 31 0 0.0 6.4 0.00 0.00 0.00 63 1017.8
20260831181037 31 0 1.6 6.4 0.00 0.00 0.00 64 1017.8
20260831180536 31 0 0.0 4.8 0.00 0.00 0.00 66 1017.9
20260831180114 31 0 0.0 6.4 0.00 0.00 0.00 65 1017.9
20260831175537 31 127 1.6 6.4 0.00 0.00 0.00 64 1017.8
20260831175037 31 127 1.6 4.8 0.00 0.00 0.00 65 1018.0
20260831174603 31 0 1.6 4.8 0.00 0.00 0.00 65 1018.0
20260831174036 31 332 0.0 3.2 0.00 0.00 0.00 66 1018.0
20260831173541 31 0 0.0 4.8 0.00 0.00 0.00 68 1018.1
20260831173059 31 0 0.0 8.0 0.00 0.00 0.00 68 1018.1
20260831172536 30 72 0.0 8.0 0.00 0.00 0.00 70 1018.1
20260831172037 30 98 1.6 8.0 0.00 0.00 0.00 70 1018.2
20260831171600 30 38 0.0 4.8 0.00 0.00 0.00 70 1018.3
20260831171036 30 49 0.0 6.4 0.00 0.00 0.00 68 1018.4
20260831170536 30 0 0.0 6.4 0.00 0.00 0.00 69 1018.5
20260831170104 30 72 1.6 6.4 0.00 0.00 0.00 67 1018.5
20260831165537 31 80 1.6 6.4 0.00 0.00 0.00 67 1018.5
20260831165037 31 39 1.6 4.8 0.00 0.00 0.00 69 1018.6
20260831164600 31 40 1.6 4.8 0.00 0.00 0.00 67 1018.7
20260831164035 31 84 0.0 1.6 0.00 0.00 0.00 67 1018.7
20260831163537 31 0 0.0 6.4 0.00 0.00 0.00 66 1018.7
20260831163102 31 0 0.0 8.0 0.00 0.00 0.00 68 1018.8
20260831162537 31 62 0.0 8.0 0.00 0.00 0.00 67 1018.8
20260831162034 30 0 0.0 3.2 0.00 0.00 0.00 68 1018.8
20260831161606 30 0 1.6 4.8 0.00 0.00 0.00 68 1018.7
20260831161037 30 335 1.6 4.8 0.00 0.00 0.00 68 1018.7
20260831160538 30 0 0.0 4.8 0.00 0.00 0.00 70 1018.8
20260831155537 30 287 0.0 3.2 0.00 0.00 0.00 71 1018.7
20260831155035 30 345 1.6 4.8 0.00 0.00 0.00 70 1018.7
20260831154617 30 347 0.0 4.8 0.00 0.00 0.00 70 1018.7
20260831154038 30 0 0.0 4.8 0.00 0.00 0.00 71 1018.9
20260831153540 30 0 0.0 6.4 0.00 0.00 0.00 72 1018.8
20260831153059 29 254 1.6 6.4 0.00 0.00 0.00 73 1018.7
20260831152538 28 0 1.6 4.8 0.00 0.00 0.00 73 1018.8
20260831152034 28 0 0.0 3.2 0.00 0.00 0.00 74 1018.7
20260831151617 28 360 1.6 3.2 0.00 0.00 0.00 73 1018.7
20260831151038 28 0 1.6 3.2 0.00 0.00 0.00 74 1018.6
20260831150540 28 32 1.6 4.8 0.00 0.00 0.00 75 1018.7
20260831150100 28 73 0.0 11.3 0.00 0.00 0.00 74 1018.6
20260831145538 28 38 4.8 11.3 0.00 0.00 0.00 75 1018.5
20260831145037 28 28 1.6 4.8 0.00 0.00 0.00 77 1018.5
20260831144601 28 352 0.0 8.0 0.00 0.00 0.00 75 1018.6
20260831144037 28 0 1.6 8.0 0.00 0.00 0.00 76 1018.6
20260831143536 28 67 1.6 8.0 0.00 0.00 0.00 76 1018.5
20260831143055 28 0 0.0 4.8 0.00 0.00 0.00 76 1018.6
20260831142536 27 0 0.0 4.8 0.00 0.00 0.00 77 1018.7
20260831142037 28 351 1.6 4.8 0.00 0.00 0.00 76 1018.7
20260831141557 28 0 0.0 0.0 0.00 0.00 0.00 76 1018.5